Simultaneous Nadir Overpasses (SNOs) Predictions

Prediction of SNOs between NOAA-19 and NPP Satellite Orbit:

Table of predicted SNOs for the next 14.0 days since TLE Epoch: 9/11/2020
Index Date (NOAA-19) Time (NOAA-19) Lat,Lon (NOAA-19) SZA (NOAA-19 ) Date (NPP) Time (NPP) Lat,Lon (NPP) SZA (NPP ) Distance(km) Time Diff (sec)
1 09/11/2020 16:20:02 79.11, -96.08 76.37 09/11/2020 16:19:23 79.09, -96.01 76.36 2.47 39
2 09/11/2020 17:10:57 -79.12, 71.28 103.63 09/11/2020 17:10:08 -79.10, 71.22 103.61 2.26 49
3 09/11/2020 18:02:02 79.12,-121.44 76.39 09/11/2020 18:00:53 79.09,-121.41 76.39 3.63 69
4 09/11/2020 18:52:51 -79.32, 47.53 103.59 09/11/2020 18:51:44 -79.31, 44.28 103.26 67.09 67
5 09/25/2020 12:42:34 -79.02, 138.16 98.49 09/25/2020 12:43:44 -79.04, 138.20 98.50 2.90 70
6 09/25/2020 13:33:38 79.03, -54.55 81.53 09/25/2020 13:34:29 79.05, -54.48 81.52 2.33 51
7 09/25/2020 14:24:34 -79.04, 112.79 98.46 09/25/2020 14:25:14 -79.05, 112.81 98.46 1.26 40
8 09/25/2020 15:15:38 79.04, -79.92 81.56 09/25/2020 15:15:59 79.05, -79.88 81.55 0.87 21
